BREEZE-M R/B, 45987

Orbit data source: Space-Track

BREEZE-M R/B, 45987 is space debris in HEO originally from a launch on Thu, 30 Jul 2020 UTC launched from the Tyuratam Missile And Space Complex (TTMTR). Debris objects in space refer to the collection of defunct objects orbiting the Earth. Examples of debris include non-operational satellites, rocket bodies, and fragments generated from explosions, collisions, or faulty payload assembly.

Not visible in the next 10 days
Identifier
45987, 2020-053C
Orbit
HEO
Country
Flag of CISCIS
Related business
Manufacturer
Khrunichev
Mission
Spacecraft
Bus & Motor
BRIZ, Unknown motor
Mass
~1,600 kg wet, 1,600 kg dry
Launch date (UTC)
2020-07-30 (5 years ago)
Launch vehicle
Unknown
Launch site
Tyuratam Missile And Space Complex (TTMTR)
Object type
Payload
Rocket body
Debris
Shape & HBR
Cyl, 2.0 m
Radar Cross Section
14.451 m², Medium (>0.1 m² and < 1m²)

Expand to show TLE details & history
Last TLE update: 2 days ago

TLE from 2 days ago
0 BREEZE-M R/B
1 45987U 20053C   25259.07020603 -.00000302  00000-0  00000-0 0  9990
2 45987   6.8342  83.5369 4366350  65.9265 333.6090  1.03581534 19400
Epoch: 2025-09-16T01:41Z
TLE epoch observation values (Epoch: 2025-09-16T01:41:05.8Z)
Latitude
0.00003°
Longitude
63.29514°
Altitude
21,890.789 km
Speed
4.306 km/s
True Right ascension
05h 35m 20s
True Declination
0° 00' 00"
Sunlit
Object was in daylight at epoch
Visualization orbit readout
Latitude
Unknown
Longitude
Unknown
Altitude
Unknown
Speed
Unknown
Apparent Right ascension
Unknown
Apparent Declination
Unknown
Sunlit
N/A
Visualization observer readout
Local Sidereal Time
17:02:01
Azimuth
Unknown
Elevation
Unknown
Doppler factor
Unknown
Orbital elements
Apogee altitude
52,901.94 km
Perigee altitude
16,868.074 km
Semi-major axis
41,263.144 km
Eccentricity
0.43664
Inclination
6.8342°
RAAN
83.5369°
Arg. of periapsis
65.9265°
True anomaly
294.78246°
Mean anomaly
333.609°
Eccentric anomaly
316.33648°
Mean motion
0.25894 °/min
Orbital period
1,390.28 mins
BSTAR
0
Loading maneuver chart data...
Computing Atmospheric mass density...
Loading historical data...
Loading historical data...
Loading historical data...
Loading historical data...
Loading historical data...
Loading historical data...
Loading historical data...
Other satellites on launch #53 in the year 2020 (2020-07-30 UTC)

Documentation

Showing up to 5 results
|